STARLINK-2071, 47361

Orbit data source: Space-Track

STARLINK-2071, 47361 is a payload satellite owned by SpaceX/Seattle (US) in LEO that was launched on Wed, 20 Jan 2021 UTC via an FALCON 9 launch vehicle from the Air Force Eastern Test Range (AFETR). Payload-class satellites include a variety of spacecraft equipped with specific instruments for various scientific and technological missions. These include communications satellites like Starlink; space stations such as the ISS; scientific satellites like the Hubble; Earth observation satellites from companies like Planet Labs, Umbra, and HawkEye 360; GPS; miniature CubeSats for education and research; and military/defense satellites.

Loading next visibility...
Identifier
47361, 2021-005N
Orbit
LEO
Country
Flag of USUS
Related business
Manufacturer
SpaceX/Seattle
Mission
Operational Commercial Communications
Bus & Motor
STARLINK, Unknown motor
Mass
260 kg wet, ~248 kg dry
Launch date (UTC)
2021-01-20 (5 years ago)
Launch vehicle
FALCON 9
Launch site
Air Force Eastern Test Range (AFETR)
Object type
Payload
Rocket body
Debris
Shape & HBR
Box + 1 Pan, 10.1 m
Radar Cross Section
13.562 m², Large (>1 m²)

Expand to show TLE details & history
Last TLE update: 2 days ago

TLE from 2 days ago
0 STARLINK-2071
1 47361U 21005N   26171.44447436 -.00000206  00000-0  51093-5 0  9994
2 47361  53.1588 279.4016 0000985  71.7245 288.3863 15.31700419299111
Epoch: 2026-06-20T10:40Z
TLE epoch observation values (Epoch: 2026-06-20T10:40:02.584Z)
Latitude
-0.00007°
Longitude
-149.26823°
Altitude
471.426 km
Speed
7.632 km/s
True Right ascension
18h 37m 36s
True Declination
0° 00' 00"
Sunlit
Object was in full shadow at epoch
Visualization orbit readout
Latitude
Unknown
Longitude
Unknown
Altitude
Unknown
Speed
Unknown
Apparent Right ascension
Unknown
Apparent Declination
Unknown
Sunlit
N/A
Visualization observer readout
Local Sidereal Time
00:32:05
Azimuth
Unknown
Elevation
Unknown
Doppler factor
Unknown
Orbital elements
Apogee altitude
471.67 km
Perigee altitude
470.321 km
Semi-major axis
6,849.133 km
Eccentricity
0.0001
Inclination
53.1588°
RAAN
279.4016°
Arg. of periapsis
71.7245°
True anomaly
288.37559°
Mean anomaly
288.3863°
Eccentric anomaly
288.38094°
Mean motion
3.82904 °/min
Orbital period
94.02 mins
BSTAR
0.0000051093
Loading maneuver chart data...
Computing Atmospheric mass density...

Documentation

Showing up to 5 results
|